Rifle, CO

12:06 PM MST on March 01, 2017 (GMT -0700)
Garfield County Regional

Weather History for KRIL - August, 2013

Change the Weather History Date:

Wednesday, August 7, 2013

  Actual Average Record
Temperature  
Mean Temperature 69 °F 72 °F  
Max Temperature 82 °F 90 °F 96 °F (1929)
Min Temperature 55 °F 55 °F 39 °F (1962)
Degree Days  
Heating Degree Days 0 0  
Month to date heating degree days 0 0  
Since 1 June heating degree days 13 60  
Since 1 July heating degree days 0 1  
Cooling Degree Days 4 7  
Month to date cooling degree days 41 54  
Year to date cooling degree days 538 397  
Since 1 June cooling degree days 531 390  
Growing Degree Days 18 (Base 50)    
Moisture  
Dew Point 44 °F    
Average Humidity 48    
Maximum Humidity 72    
Minimum Humidity 23    
Precipitation  
Precipitation 0.00 in 0.04 in 0.45 in (1967)
Month to date precipitation 0.04 0.33  
Year to date precipitation 4.80 7.90  
Sea Level Pressure  
Sea Level Pressure 29.95 in    
Wind  
Wind Speed 4 mph (ENE)    
Max Wind Speed 23 mph    
Max Gust Speed 29 mph    
Visibility 10 miles    
Events      
T = Trace of Precipitation, MM = Missing Value Source: NWS Daily Summary

Daily Weather History Graph

Daily Weather History Graph

Search for Another Location

Airport or City:

Trip Planner

Search our weather history database for the weather conditions in past years. The results will help you decide how hot, cold, wet, or windy it might be!

Date:

Astronomy

Aug. 07, 2013 Rise Set
Actual Time 6:16 AM MDT 8:16 PM MDT
Civil Twilight 5:46 AM MDT 8:45 PM MDT
Nautical Twilight 5:10 AM MDT 9:21 PM MDT
Astronomical Twilight 4:31 AM MDT 10:00 PM MDT
Moon 7:07 AM MDT (8/7) 8:25 PM MDT (8/7)
Length of Visible Light 14h 59m
Length of Day
14h 00m
New Moon, 1% of the Moon is Illuminated
Aug 7
New Moon
Aug 14
First Quarter
Aug 20
Full
Aug 28
Last Quarter
Sep 5
New

Hourly Weather History & Observations

Time (MDT) Temp. Dew Point Humidity Pressure Visibility Wind Dir Wind Speed Gust Speed Precip Events Conditions
12:53 AM 61.0 °F 46.0 °F 58% 29.96 in 10.0 mi Calm Calm - N/A   Clear
1:53 AM 57.9 °F 46.9 °F 67% 29.98 in 10.0 mi SE 4.6 mph - N/A   Clear
2:53 AM 57.9 °F 46.9 °F 67% 29.98 in 10.0 mi Calm Calm - N/A   Clear
3:53 AM 55.9 °F 46.9 °F 72% 29.98 in 10.0 mi Calm Calm - N/A   Clear
4:53 AM 55.9 °F 46.9 °F 72% 29.98 in 10.0 mi Calm Calm - N/A   Clear
5:53 AM 57.0 °F 46.9 °F 69% 29.97 in 10.0 mi Calm Calm - N/A   Clear
6:53 AM 57.0 °F 46.9 °F 69% 29.99 in 10.0 mi SE 3.5 mph - N/A   Clear
7:53 AM 57.0 °F 48.9 °F 74% 30.00 in 10.0 mi Calm Calm - N/A   Clear
8:53 AM 62.1 °F 48.9 °F 62% 30.00 in 10.0 mi Calm Calm - N/A   Clear
9:53 AM 66.0 °F 48.0 °F 52% 29.99 in 10.0 mi Calm Calm - N/A   Clear
10:53 AM 68.0 °F 48.9 °F 50% 30.00 in 10.0 mi Calm Calm - N/A   Clear
11:53 AM 72.0 °F 46.0 °F 40% 29.98 in 10.0 mi Calm Calm - N/A   Unknown
12:53 PM 75.9 °F 46.0 °F 35% 29.96 in 10.0 mi North 3.5 mph - N/A   Clear
1:53 PM 77.0 °F 43.0 °F 30% 29.94 in 10.0 mi East 9.2 mph - N/A   Partly Cloudy
2:53 PM 78.1 °F 42.1 °F 28% 29.94 in 10.0 mi ENE 15.0 mph 24.2 mph N/A   Partly Cloudy
3:53 PM 81.0 °F 41.0 °F 24% 29.88 in 10.0 mi ENE 12.7 mph - N/A   Clear
4:53 PM 80.1 °F 39.0 °F 23% 29.88 in 10.0 mi Calm Calm - N/A   Clear
5:53 PM 80.1 °F 39.0 °F 23% 29.87 in 10.0 mi North 3.5 mph - N/A   Clear
6:53 PM 80.1 °F 39.9 °F 24% 29.85 in 10.0 mi NW 5.8 mph - N/A   Clear
7:53 PM 73.9 °F 39.9 °F 29% 29.88 in 10.0 mi East 21.9 mph 27.6 mph N/A   Clear
8:02 PM 73.4 °F 37.4 °F 27% 30.06 in 10.0 mi East 20.7 mph 27.6 mph N/A   Clear
8:53 PM 72.0 °F 41.0 °F 33% 29.89 in 10.0 mi ESE 4.6 mph - N/A   Clear
9:53 PM 71.1 °F 42.1 °F 35% 29.91 in 10.0 mi NW 4.6 mph - N/A   Clear
10:53 PM 68.0 °F 42.1 °F 39% 29.92 in 10.0 mi Calm Calm - N/A   Clear
11:53 PM 66.9 °F 43.0 °F 42% 29.92 in 10.0 mi Calm Calm - N/A   Clear